Wausau, WI

11:49 PM CST on December 17, 2017 (GMT -0600)
Wausau Downtown

Weather History for KAUW - October, 2012

Change the Weather History Date:

Sunday, October 7, 2012

  Actual Average Record
Temperature  
Mean Temperature 41 °F 49 °F  
Max Temperature 50 °F 59 °F 84 °F (2007)
Min Temperature 31 °F 39 °F 22 °F (1896)
Degree Days  
Heating Degree Days 24 16  
Month to date heating degree days 111 102  
Since 1 July heating degree days 381 395  
Cooling Degree Days 0 0  
Month to date cooling degree days 0 0  
Year to date cooling degree days 725 405  
Moisture  
Dew Point 21 °F    
Average Humidity 45    
Maximum Humidity 64    
Minimum Humidity 26    
Precipitation  
Precipitation 0.00 in 0.11 in 1.73 in (1984)
Month to date precipitation T 0.79  
Year to date precipitation 21.09 26.90  
Snow  
Snow 0.00 in 0.00 in T in (1982)
Month to date snowfall T 0.1  
Since 1 July snowfall T 0.1  
Snow Depth 0.00 in    
Sea Level Pressure  
Sea Level Pressure 30.11 in    
Wind  
Wind Speed 8 mph (West)    
Max Wind Speed 21 mph    
Max Gust Speed 31 mph    
Visibility 10 miles    
Events      
T = Trace of Precipitation, MM = Missing Value Source: NWS Daily Summary

Daily Weather History Graph

Daily Weather History Graph

Search for Another Location

Airport or City:

Trip Planner

Search our weather history database for the weather conditions in past years. The results will help you decide how hot, cold, wet, or windy it might be!

Date:

Astronomy

Oct. 07, 2012 Rise Set
Actual Time 7:04 AM CDT 6:26 PM CDT
Civil Twilight 6:35 AM CDT 6:56 PM CDT
Nautical Twilight 6:01 AM CDT 7:30 PM CDT
Astronomical Twilight 5:27 AM CDT 8:04 PM CDT
Moon 11:28 PM CDT (10/7) 1:52 PM CDT (10/7)
Length of Visible Light 12h 21m
Length of Day
11h 22m
Waning Gibbous, 56% of the Moon is Illuminated
Oct 7
Waning Gibbous
Oct 8
Last Quarter
Oct 15
New
Oct 21
First Quarter
Oct 29
Full

Hourly Weather History & Observations

Time (CDT) Temp. Windchill Dew Point Humidity Pressure Visibility Wind Dir Wind Speed Gust Speed Precip Events Conditions
12:54 AM 37.0 °F 32.4 °F 25.0 °F 62% 30.19 in 10.0 mi WNW 5.8 mph - N/A   Overcast
1:54 AM 36.0 °F 33.3 °F 25.0 °F 64% 30.19 in 10.0 mi WNW 3.5 mph - N/A   Overcast
2:54 AM 36.0 °F 33.3 °F 25.0 °F 64% 30.18 in 10.0 mi NNW 3.5 mph - N/A   Overcast
3:54 AM 35.1 °F 32.2 °F 24.1 °F 64% 30.17 in 10.0 mi WNW 3.5 mph - N/A   Overcast
4:54 AM 35.1 °F 30.1 °F 23.0 °F 61% 30.17 in 10.0 mi West 5.8 mph - N/A   Overcast
5:54 AM 35.1 °F 31.0 °F 23.0 °F 61% 30.16 in 10.0 mi West 4.6 mph - N/A   Overcast
6:54 AM 33.1 °F 27.7 °F 23.0 °F 66% 30.17 in 10.0 mi NW 5.8 mph - N/A   Mostly Cloudy
7:54 AM 33.1 °F 26.9 °F 23.0 °F 66% 30.18 in 10.0 mi WNW 6.9 mph - N/A   Partly Cloudy
8:54 AM 36.0 °F 30.3 °F 23.0 °F 59% 30.18 in 10.0 mi WNW 6.9 mph - N/A   Mostly Cloudy
9:54 AM 39.9 °F - 24.1 °F 53% 30.16 in 10.0 mi Calm Calm - N/A   Clear
10:54 AM 44.1 °F 37.1 °F 18.0 °F 35% 30.15 in 10.0 mi West 15.0 mph 20.7 mph N/A   Clear
11:54 AM 44.1 °F 36.5 °F 18.0 °F 35% 30.13 in 10.0 mi WNW 17.3 mph 23.0 mph N/A   Partly Cloudy
12:54 PM 46.9 °F - 18.0 °F 32% 30.12 in 10.0 mi West 15.0 mph 20.7 mph N/A   Partly Cloudy
1:54 PM 48.0 °F - 17.1 °F 29% 30.09 in 10.0 mi West 15.0 mph 24.2 mph N/A   Clear
2:54 PM 50.0 °F - 18.0 °F 28% 30.07 in 10.0 mi West 18.4 mph 24.2 mph N/A   Partly Cloudy
3:54 PM 48.9 °F - 16.0 °F 27% 30.05 in 10.0 mi West 13.8 mph 23.0 mph N/A   Partly Cloudy
4:54 PM 48.0 °F - 16.0 °F 28% 30.04 in 10.0 mi SW 9.2 mph 17.3 mph N/A   Clear
5:54 PM 46.0 °F 41.4 °F 16.0 °F 30% 30.04 in 10.0 mi WSW 9.2 mph - N/A   Clear
6:54 PM 42.1 °F 39.2 °F 17.1 °F 37% 30.04 in 10.0 mi WSW 4.6 mph - N/A   Clear
7:54 PM 41.0 °F 38.0 °F 19.0 °F 41% 30.05 in 10.0 mi SSW 4.6 mph - N/A   Clear
8:54 PM 39.9 °F 35.1 °F 18.0 °F 41% 30.05 in 10.0 mi SW 6.9 mph - N/A   Clear
9:54 PM 37.9 °F 33.5 °F 19.0 °F 47% 30.05 in 10.0 mi SSW 5.8 mph - N/A   Clear
10:54 PM 34.0 °F - 21.9 °F 61% 30.04 in 10.0 mi Calm Calm - N/A   Clear
11:54 PM 36.0 °F 32.1 °F 23.0 °F 59% 30.02 in 10.0 mi South 4.6 mph - N/A   Clear